Location: Pardubice
(50.0330°N, 15.7830°E)
Time: 19:11:12
(UTC+02:00)

ARIANE 6 FM1 Upper Stage - Visible Passes

Search period start: 08 September 2024 00:00
Search period end: 18 September 2024 00:00
Orbit: 567 x 594 km, 62.0° (Epoch: 06 September)

Date Brightness Start Highest point End Pass type
(mag) Time Alt. Az. Time Alt. Az. Time Alt. Az.
08 Sep 5.0 01:58:07 24° NNE 01:58:07 24° NNE 01:59:59 10° NE visible
08 Sep 4.8 03:34:25 17° NW 03:35:56 20° NNW 03:39:13 10° NNE visible
08 Sep 5.2 05:13:43 10° NW 05:16:43 18° N 05:19:45 10° NE visible
09 Sep 5.0 02:02:46 24° NNE 02:02:46 24° NNE 02:04:49 10° NE visible
09 Sep 5.1 03:39:04 14° NW 03:41:07 18° N 03:44:11 10° NE visible
09 Sep 5.2 05:18:42 10° NNW 05:21:55 19° NNE 05:25:07 10° ENE visible
10 Sep 5.0 02:07:24 23° N 02:07:24 23° N 02:09:37 10° NE visible
10 Sep 5.2 03:43:42 11° NW 03:46:18 17° N 03:49:14 10° NE visible
10 Sep 5.0 05:23:36 10° NNW 05:27:03 22° NNE 05:30:30 10° ENE visible
11 Sep 5.1 02:12:01 22° N 02:12:01 22° N 02:14:26 10° NNE visible
11 Sep 5.3 03:48:35 10° NW 03:51:29 17° N 03:54:23 10° NE visible
11 Sep 4.8 05:28:26 10° NW 05:32:09 26° NNE 05:35:51 10° E visible
12 Sep 5.1 02:16:39 20° N 02:16:39 20° N 02:19:15 10° NNE visible
12 Sep 5.3 03:53:41 10° NW 03:56:38 17° N 03:59:36 10° NE visible
12 Sep 4.5 05:33:13 10° NW 05:37:11 32° NNE 05:41:08 10° E visible
13 Sep 5.2 02:21:16 19° N 02:21:16 19° N 02:24:08 10° NE visible
13 Sep 5.3 03:58:40 10° NW 04:01:46 19° NNE 04:04:53 10° ENE visible
13 Sep 4.1 05:37:59 10° NW 05:42:09 41° NE 05:46:18 10° ESE visible
14 Sep 5.3 02:25:56 18° N 02:26:05 18° N 02:29:04 10° NE visible
14 Sep 5.2 04:03:32 10° NNW 04:06:52 21° NNE 04:10:12 10° ENE visible
14 Sep 3.5 05:42:44 10° NW 05:47:03 56° NE 05:51:21 10° ESE visible
15 Sep 5.9 00:54:20 10° NE 00:54:20 10° NE 00:54:20 10° NE visible
15 Sep 5.3 02:30:39 17° NNW 02:31:12 17° N 02:34:06 10° NE visible
15 Sep 5.0 04:08:20 10° NNW 04:11:55 24° NNE 04:15:30 10° ENE visible
15 Sep 2.9 05:47:29 10° NW 05:51:53 79° NE 05:56:15 10° SE visible
16 Sep 5.3 02:35:25 16° NNW 02:36:19 17° N 02:39:13 10° NE visible
16 Sep 4.7 04:13:03 10° NW 04:16:54 29° NNE 04:20:45 10° E visible
16 Sep 2.7 05:52:16 10° NW 05:56:39 72° SW 06:00:59 10° SE visible
17 Sep 5.3 02:40:19 17° N 02:41:23 18° N 02:44:25 10° NE visible
17 Sep 4.2 04:17:46 10° NW 04:21:50 37° NNE 04:25:54 10° E visible
17 Sep 3.0 05:57:07 10° NW 06:01:20 48° SW 06:05:31 10° SSE visible
